Location: Newark
(47.5347°N, 5.5339°E)
Time: 15:26:52
(UTC+00:00)

ISS - Pass Details

Date: 29 September 2019
Orbit: 411 x 421 km, 51.6° (Epoch: 21 October)

Event Time Altitude Azimuth Distance (km) Brightness Sun altitude
Rises 20:06:59 0° 293° (WNW) 2,347 1.3 -27.6°
Reaches altitude 10° 20:09:05 10° 296° (WNW) 1,483 0.0 -27.9°
Enters shadow 20:10:13 20° 300° (WNW) 1,038 -1.0 -28.1°
